[[{"header":{"parameterUnit":"m.s-1","parameterCategory":1,"la1":30.2991,"la2":30.254,"lo1":-89.0895,"lo2":-89.0444,"dy":0.0017,"dx":0.0017,"nx":28,"ny":28,"refTime":"2025-03-27T21:00:00:Z","depth":0,"parameterNumber":2,"parameterNumberName":"U-component_of_WINDS"},"data":[0,0,0,0,0,0,0,0,0,0,0,0,0,0,0,0,0,0,0,0,0,0,0,0,0,0,0,0,0,0,0,0,0,0,0,0,0,0,0,0,0,0,0,0,0,0,0,0,0,0,0,0,0,0,0,0,0,0,-5.7768,-5.7769,0,-5.7897,-5.7898,-5.7899,-5.7902,-5.7901,-5.7899,-5.7898,-5.8027,-5.8032,-5.8037,0,0,0,0,0,0,0,0,0,0,0,0,0,-5.7522,-5.7527,-5.7767,-5.7769,-5.7771,-5.7896,-5.7898,-5.79,-5.7903,-5.7901,-5.7899,-5.7897,-5.8025,-5.8031,-5.8037,0,0,0,0,0,0,0,0,0,0,0,0,0,-5.7638,-5.7528,-5.7767,-5.7787,-5.779,-5.7896,-5.7898,-5.79,-5.7903,-5.7901,-5.7898,-5.7896,-5.8023,-5.8031,-5.8038,-5.8131,0,0,-5.806,-5.8064,0,0,0,0,0,0,0,0,-5.7631,-5.7647,-5.7783,-5.7786,-5.779,-5.7881,-5.7859,-5.7978,-5.7904,-5.786,-5.7897,-5.7895,-5.798,-5.7991,-5.802,-5.8137,-5.8143,-5.8061,-5.8066,-5.8069,-5.8071,0,0,0,0,0,0,0,-5.7623,-5.7641,-5.7818,-5.7785,-5.7789,-5.7789,-5.7803,-5.7882,-5.7932,-5.7864,-5.7864,-5.788,-5.7981,-5.8013,-5.8023,-5.8145,-5.8061,-5.8067,-5.8072,-5.8075,-5.8345,-5.8348,0,0,0,0,0,0,-5.7611,-5.7634,-5.7814,-5.7822,-5.7703,-5.7796,-5.7811,-5.7854,-5.7931,-5.794,-5.7881,-5.7879,-5.8002,-5.8015,-5.8028,-5.8141,-5.8069,-5.8076,-5.808,-5.8343,-5.8346,-5.8349,0,0,0,0,0,0,-5.7606,-5.7627,-5.7809,-5.7729,-5.7752,-5.7803,-5.7851,-5.7858,-5.7889,-5.7944,-5.7953,-5.7904,-5.8,-5.8017,-5.8106,-5.8146,-5.8079,-5.8086,-5.8339,-5.8344,-5.8347,-5.837,0,0,0,0,0,0,-5.7599,-5.7625,-5.7661,-5.7729,-5.7756,-5.7885,-5.7853,-5.7862,-5.7902,-5.7901,-5.7968,-5.7977,-5.8,-5.8095,-5.8113,-5.8155,-5.8091,-5.8336,-5.8341,-5.8346,-5.8365,-5.8374,-5.8381,0,0,0,0,0,-5.759,-5.7662,-5.7663,-5.7685,-5.7802,-5.7887,-5.7902,-5.7927,-5.7906,-5.7942,-5.7978,-5.7975,-5.814,-5.8104,-5.8124,-5.8169,-5.8333,-5.834,-5.8346,-5.8362,-5.8372,-5.8381,0,0,0,0,0,0,-5.7595,-5.7671,-5.7673,-5.7769,-5.7822,-5.7888,-5.7934,-5.7938,-5.7997,-5.7993,-5.8021,-5.8036,-5.8124,-5.8156,-5.8115,-5.8264,-5.8234,-5.8244,-5.8239,-5.8249,-5.8257,-5.8246,-5.8098,0,0,0,0,0,-5.7608,-5.7672,-5.7734,-5.7813,-5.7839,-5.7882,-5.792,-5.7936,-5.7991,-5.8013,-5.8055,-5.8108,-5.8172,-5.8213,-5.8275,-5.8372,-5.8386,-5.8413,-5.8421,-5.8427,-5.8435,-5.8488,-5.85,-5.8369,-5.8369,-5.8369,0,0,-5.7634,-5.7683,-5.7721,-5.7815,-5.7858,-5.7922,-5.7901,-5.797,-5.8017,-5.8023,-5.8108,-5.8142,-5.8204,-5.8296,-5.834,-5.8326,-5.8475,-5.8435,-5.844,-5.8444,-5.8496,-5.8508,-5.8519,-5.8374,-5.8373,-5.8372,0,0,-5.7714,-5.7758,-5.7828,-5.7872,-5.7938,-5.7966,-5.7984,-5.805,-5.8072,-5.8159,-5.8165,-5.8223,-5.8332,-5.8375,-5.8412,-5.8512,-5.8511,-5.8531,-5.8571,-5.8623,-5.8633,-5.8642,-5.8676,-5.8688,-5.854,-5.854,-5.854,0,-5.7737,-5.7835,-5.7863,-5.7933,-5.7973,-5.7984,-5.8055,-5.8096,-5.8178,-5.8206,-5.819,-5.8328,-5.8371,-5.8474,-5.8498,-5.8528,-5.8548,-5.8521,-5.8629,-5.8639,-5.8648,-5.868,-5.8693,-5.8541,-5.8541,-5.8541,-5.8541,0,-5.7859,-5.7928,-5.7976,-5.8056,-5.8103,-5.8173,-5.8212,-5.8256,-5.8269,-5.8299,-5.8388,-5.844,-5.8512,-5.8539,-5.8551,-5.8644,-5.8633,-5.8624,-5.8593,-5.8662,-5.8692,-5.8705,-5.8544,-5.8543,-5.8543,-5.8542,0,0,-5.7941,-5.8039,-5.8056,-5.8093,-5.8168,-5.8221,-5.8292,-5.8364,-5.84,-5.8458,-5.8517,-5.8611,-5.8603,-5.8645,-5.8662,-5.8708,-5.8782,-5.8693,-5.8695,-5.8705,-5.8887,-5.8891,-5.8905,-5.8784,-5.8787,-5.8789,-5.8881,0,-5.8027,-5.8153,-5.8182,-5.829,-5.8353,-5.8366,-5.8428,-5.848,-5.8512,-5.8569,-5.8604,-5.8669,-5.8655,-5.868,-5.8726,-5.8763,-5.8818,-5.8758,-5.8838,-5.884,-5.8818,-5.8922,-5.8926,-5.901,-5.8893,-5.8895,-5.8897,0,-5.8142,-5.8204,-5.8318,-5.8386,-5.8413,-5.8468,-5.8537,-5.8593,-5.8653,-5.8673,-5.8721,-5.8735,-5.8809,-5.8778,-5.888,-5.8838,-5.8873,-5.8897,-5.8901,-5.8906,-5.887,-5.8927,-5.9038,-5.9049,-5.8917,-5.8915,-5.8914,0,-5.8188,-5.83,-5.8382,-5.8414,-5.8495,-5.8533,-5.8569,-5.8627,-5.8669,-5.873,-5.8758,-5.8826,-5.8863,-5.8916,-5.8947,-5.8923,-5.9047,-5.9019,-5.9064,-5.9063,-5.9086,-5.9083,-5.92,-5.9114,-5.9114,-5.9114,-5.9113,0,-5.8278,-5.8347,-5.8404,-5.8454,-5.8532,-5.8566,-5.8643,-5.8678,-5.8731,-5.8788,-5.8805,-5.8858,-5.8899,-5.8958,-5.8984,-5.9064,-5.9081,-5.9098,-5.9103,-5.9095,-5.9092,-5.9115,-5.9109,-5.9117,-5.9116,-5.9116,-5.9115,0,-5.834,-5.8381,-5.8472,-5.8543,-5.8563,-5.8617,-5.8677,-5.8727,-5.876,-5.8833,-5.8852,-5.8904,-5.8975,-5.9013,-5.9102,-5.9119,-5.9208,-5.9212,-5.9187,-5.9189,-5.9231,-5.9225,-5.9364,-5.9383,-5.9287,-5.9288,-5.9289,0,-5.8393,-5.8447,-5.8524,-5.8564,-5.8601,-5.8666,-5.8709,-5.8746,-5.879,-5.8865,-5.8905,-5.8978,-5.9037,-5.915,-5.9195,-5.9263,-5.9267,-5.9311,-5.9277,-5.9266,-5.9264,-5.9259,-5.9264,-5.9315,-5.9316,-5.9317,-5.9318,0,-5.8482,-5.8501,-5.8563,-5.8633,-5.8685,-5.8742,-5.8798,-5.883,-5.8876,-5.8925,-5.8998,-5.9045,-5.9137,-5.9207,-5.928,-5.9316,-5.9324,-5.9329,-5.9342,-5.9332,-5.9315,-5.9322,-5.92,-5.9324,-5.9324,-5.9323,-5.9323,-5.9323,-5.854,-5.8588,-5.865,-5.8719,-5.8766,-5.8819,-5.8869,-5.891,-5.8972,-5.9049,-5.9068,-5.9145,-5.9206,-5.9304,-5.9343,-5.9403,-5.9395,-5.9415,-5.9419,-5.9423,-5.9423,-5.9308,-5.9417,-5.9417,-5.9417,-5.9417,-5.9417,0,-5.8627,-5.8669,-5.8733,-5.8811,-5.8866,-5.8872,-5.8935,-5.898,-5.9048,-5.9104,-5.9163,-5.9248,-5.9318,-5.937,-5.9441,-5.948,-5.9485,-5.9497,-5.9492,-5.9501,-5.9428,-5.9408,-5.9491,-5.9491,-5.9491,-5.9491,-5.9491,-5.9491,-5.8679,-5.8761,-5.8787,-5.8892,-5.8934,-5.901,-5.9045,-5.9094,-5.9139,-5.9233,-5.9292,-5.9326,-5.9381,-5.9457,-5.9521,-5.9535,-5.9559,-5.957,-5.9583,-5.9514,-5.9506,-5.9498,-5.9479,-5.9576,-5.9576,-5.9651,-5.9651,-5.9652]},{"header":{"parameterUnit":"m.s-1","parameterCategory":1,"la1":30.2991,"la2":30.254,"lo1":-89.0895,"lo2":-89.0444,"dy":0.0017,"dx":0.0017,"nx":28,"ny":28,"refTime":"2025-03-27T21:00:00:Z","depth":0,"parameterNumber":3,"parameterNumberName":"V-component_of_WINDS"},"data":[0,0,0,0,0,0,0,0,0,0,0,0,0,0,0,0,0,0,0,0,0,0,0,0,0,0,0,0,0,0,0,0,0,0,0,0,0,0,0,0,0,0,0,0,0,0,0,0,0,0,0,0,0,0,0,0,0,0,3.6435,3.6435,0,3.6499,3.65,3.6501,3.651,3.6509,3.6509,3.6508,3.6571,3.6574,3.6576,0,0,0,0,0,0,0,0,0,0,0,0,0,3.6319,3.6321,3.6435,3.6436,3.6436,3.6499,3.65,3.6501,3.651,3.6509,3.6509,3.6508,3.6571,3.6573,3.6576,0,0,0,0,0,0,0,0,0,0,0,0,0,3.6375,3.6322,3.6435,3.6449,3.645,3.6499,3.65,3.6501,3.651,3.6509,3.6508,3.6508,3.657,3.6573,3.6576,3.6615,0,0,3.6587,3.6588,0,0,0,0,0,0,0,0,3.6372,3.6379,3.6446,3.6448,3.645,3.6496,3.6483,3.6539,3.651,3.6487,3.6508,3.6507,3.6547,3.6552,3.6566,3.6617,3.662,3.6587,3.6589,3.659,3.6591,0,0,0,0,0,0,0,3.6368,3.6377,3.646,3.6447,3.6449,3.6452,3.6458,3.6493,3.6521,3.6489,3.649,3.6498,3.6548,3.6563,3.6567,3.6621,3.6587,3.659,3.6592,3.6593,3.6711,3.6712,0,0,0,0,0,0,3.6362,3.6373,3.6458,3.6462,3.6408,3.6454,3.6462,3.6482,3.6521,3.6526,3.6498,3.6498,3.6557,3.6563,3.657,3.6619,3.659,3.6593,3.6595,3.671,3.6711,3.6712,0,0,0,0,0,0,3.6359,3.6369,3.6455,3.6418,3.6429,3.6457,3.6479,3.6484,3.6498,3.6528,3.6533,3.6509,3.6557,3.6565,3.6604,3.6621,3.6595,3.6598,3.6708,3.671,3.6712,3.6717,0,0,0,0,0,0,3.6356,3.6368,3.6383,3.6418,3.6431,3.6489,3.648,3.6485,3.6505,3.6505,3.6539,3.6543,3.6557,3.6599,3.6608,3.6625,3.6601,3.6707,3.6709,3.6711,3.6715,3.6719,3.6721,0,0,0,0,0,3.6352,3.6381,3.6384,3.6394,3.645,3.649,3.6497,3.6513,3.6506,3.6521,3.6541,3.6542,3.6618,3.6603,3.6613,3.6632,3.6706,3.6708,3.6711,3.6714,3.6718,3.6721,0,0,0,0,0,0,3.6345,3.6385,3.6389,3.643,3.6457,3.6491,3.6511,3.6516,3.6544,3.6543,3.6561,3.6568,3.6607,3.6623,3.6606,3.6672,3.6661,3.6666,3.666,3.6664,3.6667,3.6663,3.6603,0,0,0,0,0,3.6348,3.6378,3.6411,3.6444,3.6458,3.6482,3.65,3.651,3.6538,3.6549,3.6571,3.6597,3.6628,3.6647,3.6676,3.6718,3.6726,3.6736,3.6739,3.6741,3.6745,3.6771,3.6776,3.672,3.672,3.672,0,0,3.6355,3.6381,3.6398,3.6444,3.6465,3.6496,3.6491,3.6523,3.6546,3.6553,3.6593,3.661,3.6641,3.6683,3.6702,3.6697,3.6763,3.6744,3.6746,3.6749,3.6774,3.6779,3.6784,3.6722,3.6722,3.6722,0,0,3.6383,3.6405,3.6437,3.646,3.6494,3.651,3.6518,3.6553,3.6565,3.6605,3.6612,3.664,3.669,3.6713,3.6731,3.6772,3.6775,3.6781,3.6796,3.6822,3.6826,3.683,3.6846,3.6852,3.6785,3.6785,3.6785,0,3.6387,3.6434,3.6452,3.6485,3.6505,3.6516,3.6548,3.6569,3.661,3.6624,3.6618,3.6685,3.6706,3.6754,3.6765,3.6779,3.6789,3.6777,3.6824,3.6828,3.6832,3.6848,3.6854,3.6785,3.6785,3.6785,3.6785,0,3.6438,3.6471,3.6492,3.6534,3.6557,3.6589,3.6612,3.6633,3.6642,3.666,3.6702,3.6728,3.6764,3.6776,3.6784,3.6827,3.6823,3.682,3.681,3.6838,3.6853,3.6859,3.6786,3.6786,3.6786,3.6785,0,0,3.6462,3.6516,3.6523,3.6544,3.6584,3.6609,3.6642,3.6679,3.6698,3.6727,3.6756,3.68,3.68,3.682,3.6831,3.6853,3.6886,3.6848,3.6849,3.6856,3.6937,3.6939,3.6946,3.6889,3.689,3.6891,3.6935,0,3.6496,3.6557,3.6576,3.6627,3.6658,3.667,3.67,3.6727,3.6745,3.6774,3.6794,3.6826,3.6821,3.6834,3.6857,3.6877,3.6903,3.6875,3.6917,3.6918,3.6909,3.6953,3.6955,3.6995,3.6941,3.6942,3.6942,0,3.6543,3.6576,3.663,3.6669,3.6683,3.6709,3.6746,3.6773,3.6806,3.6818,3.6843,3.6853,3.6889,3.6877,3.6927,3.6908,3.6926,3.694,3.6942,3.6946,3.6932,3.696,3.7007,3.7014,3.6951,3.6951,3.695,0,3.6557,3.6614,3.6655,3.6672,3.6717,3.6736,3.6756,3.6788,3.681,3.6842,3.6856,3.6891,3.6911,3.6938,3.6958,3.6947,3.7008,3.6996,3.7019,3.7019,3.7031,3.703,3.7083,3.7042,3.7042,3.7042,3.7041,0,3.6594,3.6627,3.6662,3.6687,3.6726,3.6748,3.6785,3.6805,3.6834,3.6864,3.6876,3.6903,3.6927,3.6958,3.6974,3.7015,3.7023,3.7034,3.7038,3.7033,3.7032,3.7046,3.7044,3.7043,3.7043,3.7043,3.7042,0,3.6615,3.664,3.6686,3.6727,3.6738,3.6765,3.6799,3.6825,3.6844,3.6882,3.6892,3.6922,3.696,3.6982,3.7029,3.7039,3.7085,3.7087,3.7075,3.7076,3.7098,3.7096,3.7162,3.7173,3.7124,3.7124,3.7124,0,3.6637,3.6664,3.6708,3.673,3.6751,3.6785,3.6808,3.6831,3.6855,3.6896,3.6916,3.6955,3.6987,3.7047,3.7073,3.7109,3.7113,3.7134,3.7118,3.7114,3.7115,3.7113,3.7117,3.7136,3.7136,3.7137,3.7137,0,3.6674,3.6686,3.672,3.6759,3.6787,3.6818,3.6849,3.6866,3.6894,3.6921,3.696,3.6985,3.7035,3.7074,3.7113,3.7133,3.714,3.7142,3.7149,3.7145,3.7138,3.7144,3.7083,3.714,3.714,3.714,3.7139,3.7139,3.6698,3.6723,3.6759,3.6797,3.6824,3.6853,3.688,3.6904,3.6938,3.6981,3.6992,3.7034,3.7068,3.7122,3.7144,3.7177,3.7174,3.7184,3.7187,3.7189,3.7191,3.7132,3.7184,3.7184,3.7184,3.7184,3.7184,0,3.6737,3.6761,3.6796,3.6841,3.6871,3.6877,3.6912,3.6937,3.6974,3.7006,3.7039,3.7085,3.7124,3.7154,3.7193,3.7214,3.7219,3.7224,3.7223,3.7228,3.719,3.7181,3.722,3.722,3.722,3.722,3.722,3.722,3.676,3.6804,3.6821,3.6879,3.6903,3.6945,3.6965,3.6993,3.7019,3.7071,3.7104,3.7124,3.7156,3.7198,3.7234,3.7242,3.7257,3.7262,3.727,3.7234,3.723,3.7227,3.7218,3.7264,3.7264,3.7305,3.7306,3.7306]}]]